Cavalier, ND

12:17 AM CST on December 03, 2016 (GMT -0600)
Cavalier

Weather History for K2C8 - September, 2012

Change the Weather History Date:

Monday, September 17, 2012

  Actual Average (KGAF) Record (KGAF)
Temperature  
Mean Temperature 42 °F -  
Max Temperature 51 °F 71 °F 94 °F (1979)
Min Temperature 32 °F 45 °F 21 °F (1959)
Degree Days  
Heating Degree Days 24    
Moisture  
Dew Point 37 °F    
Average Humidity 82    
Maximum Humidity 100    
Minimum Humidity 58    
Precipitation  
Precipitation 0.06 in - - ()
Sea Level Pressure  
Sea Level Pressure 30.11 in    
Wind  
Wind Speed 5 mph (NW)    
Max Wind Speed 14 mph    
Max Gust Speed 23 mph    
Visibility 9 miles    
Events Rain    
Averages and records for this station are not official NWS values.
T = Trace of Precipitation, MM = Missing Value Source: NWS Daily Summary

Daily Weather History Graph

Daily Weather History Graph

Search for Another Location

Airport or City:

Trip Planner

Search our weather history database for the weather conditions in past years. The results will help you decide how hot, cold, wet, or windy it might be!

Date:

Astronomy

Sep. 17, 2012 Rise Set
Actual Time 7:10 AM CDT 7:37 PM CDT
Civil Twilight 6:39 AM CDT 8:09 PM CDT
Nautical Twilight 6:01 AM CDT 8:46 PM CDT
Astronomical Twilight 5:22 AM CDT 9:25 PM CDT
Moon 9:16 AM CDT (9/17) 8:03 PM CDT (9/17)
Length of Visible Light 13h 30m
Length of Day
12h 27m
Waxing Crescent, 3% of the Moon is Illuminated
Sep 17
Waxing Crescent
Sep 22
First Quarter
Sep 29
Full
Oct 8
Last Quarter
Oct 15
New

Hourly Weather History & Observations

Time (CDT) Temp. Windchill Dew Point Humidity Pressure Visibility Wind Dir Wind Speed Gust Speed Precip Events Conditions
12:15 AM 44.6 °F 41.4 °F 35.6 °F 71% 30.13 in 10.0 mi NNW 5.8 mph - N/A   Mostly Cloudy
12:35 AM 44.6 °F 41.4 °F 35.6 °F 71% 30.12 in 10.0 mi North 5.8 mph - N/A   Mostly Cloudy
12:55 AM 44.6 °F 42.2 °F 35.6 °F 71% 30.11 in 10.0 mi NNE 4.6 mph - N/A   Mostly Cloudy
1:15 AM 44.6 °F 40.7 °F 35.6 °F 71% 30.13 in 10.0 mi West 6.9 mph - N/A   Mostly Cloudy
1:35 AM 44.6 °F 39.2 °F 37.4 °F 76% 30.13 in 10.0 mi WNW 10.4 mph - N/A   Overcast
1:55 AM 44.6 °F 43.1 °F 39.2 °F 81% 30.12 in 10.0 mi West 3.5 mph - N/A   Mostly Cloudy
2:15 AM 44.6 °F - 39.2 °F 81% 30.12 in 10.0 mi Calm Calm - N/A   Partly Cloudy
2:35 AM 44.6 °F 42.2 °F 39.2 °F 81% 30.12 in 10.0 mi NW 4.6 mph - N/A   Scattered Clouds
2:55 AM 44.6 °F 41.4 °F 39.2 °F 81% 30.11 in 10.0 mi NNW 5.8 mph - N/A   Mostly Cloudy
3:15 AM 42.8 °F 39.3 °F 39.2 °F 87% 30.11 in 10.0 mi NNW 5.8 mph - N/A   Scattered Clouds
3:35 AM 41.0 °F 38.0 °F 39.2 °F 93% 30.11 in 10.0 mi NNW 4.6 mph - N/A   Partly Cloudy
3:55 AM 39.2 °F - 35.6 °F 87% 30.10 in 10.0 mi Calm Calm - N/A   Clear
4:15 AM 39.2 °F 35.0 °F 37.4 °F 93% 30.11 in 10.0 mi NNW 5.8 mph - N/A   Clear
4:55 AM 41.0 °F 37.1 °F 37.4 °F 87% 30.12 in 10.0 mi NNW 5.8 mph - N/A   Partly Cloudy
5:15 AM 35.6 °F 31.7 °F 32.0 °F 87% 30.12 in 10.0 mi WNW 4.6 mph - N/A   Clear
5:35 AM 35.6 °F 31.7 °F 32.0 °F 87% 30.12 in 10.0 mi WNW 4.6 mph - N/A   Partly Cloudy
5:55 AM 35.6 °F 30.7 °F 32.0 °F 87% 30.12 in 10.0 mi NW 5.8 mph - N/A   Partly Cloudy
6:15 AM 33.8 °F 30.8 °F 32.0 °F 93% 30.12 in 10.0 mi NW 3.5 mph - N/A   Clear
6:35 AM 33.8 °F 30.8 °F 32.0 °F 93% 30.12 in 10.0 mi WNW 3.5 mph - N/A   Clear
7:15 AM 32.0 °F 27.5 °F 32.0 °F 100% 30.13 in 10.0 mi NW 4.6 mph - N/A   Clear
7:35 AM 35.6 °F 31.7 °F 33.8 °F 93% 30.13 in 10.0 mi WNW 4.6 mph - N/A   Clear
7:55 AM 37.4 °F 34.9 °F 35.6 °F 93% 30.13 in 10.0 mi NW 3.5 mph - N/A   Mostly Cloudy
8:15 AM 41.0 °F 39.0 °F 37.4 °F 87% 30.13 in 10.0 mi WNW 3.5 mph - N/A   Scattered Clouds
8:35 AM 41.0 °F 38.0 °F 37.4 °F 87% 30.13 in 10.0 mi NNW 4.6 mph - N/A   Partly Cloudy
8:55 AM 42.8 °F 40.1 °F 39.2 °F 87% 30.13 in 10.0 mi NW 4.6 mph - N/A   Partly Cloudy
9:15 AM 44.6 °F 41.4 °F 37.4 °F 76% 30.14 in 10.0 mi NNW 5.8 mph - N/A   Scattered Clouds
9:35 AM 44.6 °F 40.2 °F 37.4 °F 76% 30.14 in 10.0 mi North 8.1 mph - N/A   Partly Cloudy
9:55 AM 44.6 °F 41.4 °F 37.4 °F 76% 30.14 in 10.0 mi NNW 5.8 mph - N/A   Partly Cloudy
10:35 AM 48.2 °F - 37.4 °F 66% 30.14 in 10.0 mi North 8.1 mph - N/A   Scattered Clouds
10:55 AM 48.2 °F - 37.4 °F 66% 30.14 in 10.0 mi NNW 5.8 mph - N/A   Scattered Clouds
11:15 AM 48.2 °F - 37.4 °F 66% 30.14 in 10.0 mi NNW 8.1 mph - N/A   Scattered Clouds
11:35 AM 50.0 °F - 37.4 °F 62% 30.14 in 10.0 mi NNW 9.2 mph - N/A   Scattered Clouds
11:55 AM 48.2 °F - 37.4 °F 66% 30.14 in 10.0 mi NNW 9.2 mph - N/A   Mostly Cloudy
12:15 PM 46.4 °F 40.4 °F 41.0 °F 81% 30.15 in 6.0 mi NNW 13.8 mph 23.0 mph N/A Rain Light Rain
12:35 PM 44.6 °F 38.4 °F 42.8 °F 93% 30.15 in 3.0 mi North 12.7 mph - 0.01 in Rain Light Rain
12:55 PM 44.6 °F 39.2 °F 41.0 °F 87% 30.15 in 2.5 mi NNW 10.4 mph - 0.04 in Rain Light Rain
1:15 PM 44.6 °F 41.4 °F 41.0 °F 87% 30.15 in 3.0 mi NNW 5.8 mph - 0.01 in Rain Light Rain
1:35 PM 44.6 °F 40.7 °F 41.0 °F 87% 30.14 in 5.0 mi NW 6.9 mph - 0.01 in Rain Light Rain
1:55 PM 44.6 °F 40.7 °F 41.0 °F 87% 30.13 in 5.0 mi NNW 6.9 mph - 0.02 in Rain Light Rain
2:15 PM 46.4 °F 43.5 °F 41.0 °F 81% 30.13 in 9.0 mi NW 5.8 mph - N/A Rain Light Rain
2:35 PM 46.4 °F 42.9 °F 41.0 °F 81% 30.12 in 9.0 mi NW 6.9 mph - N/A Rain Light Rain
2:55 PM 48.2 °F - 41.0 °F 76% 30.11 in 10.0 mi NW 8.1 mph - N/A   Mostly Cloudy
3:15 PM 50.0 °F - 39.2 °F 66% 30.11 in 10.0 mi NNW 8.1 mph - N/A   Partly Cloudy
3:35 PM 50.0 °F - 39.2 °F 66% 30.10 in 10.0 mi North 5.8 mph - N/A   Clear
3:55 PM 50.0 °F - 37.4 °F 62% 30.09 in 10.0 mi North 6.9 mph - N/A   Partly Cloudy
4:15 PM 51.8 °F - 37.4 °F 58% 30.09 in 10.0 mi NNW 4.6 mph - N/A   Clear
4:35 PM 50.0 °F - 39.2 °F 66% 30.09 in 4.0 mi NNW 12.7 mph - N/A Rain Rain
4:55 PM 48.2 °F - 41.0 °F 76% 30.09 in 10.0 mi NW 4.6 mph - N/A   Scattered Clouds
5:15 PM 50.0 °F - 39.2 °F 66% 30.09 in 10.0 mi NW 3.5 mph - N/A   Clear
6:15 PM 48.2 °F - 39.2 °F 71% 30.09 in 10.0 mi West 8.1 mph - N/A   Partly Cloudy
6:35 PM 48.2 °F - 39.2 °F 71% 30.08 in 10.0 mi WNW 6.9 mph - N/A   Clear
6:55 PM 48.2 °F - 39.2 °F 71% 30.08 in 10.0 mi WNW 5.8 mph - N/A   Clear
7:15 PM 48.2 °F - 39.2 °F 71% 30.08 in 10.0 mi West 5.8 mph - N/A   Clear
7:35 PM 44.6 °F 41.4 °F 39.2 °F 81% 30.08 in 10.0 mi West 5.8 mph - N/A   Clear
7:55 PM 41.0 °F 38.0 °F 37.4 °F 87% 30.08 in 10.0 mi West 4.6 mph - N/A   Clear
8:15 PM 39.2 °F 37.0 °F 37.4 °F 93% 30.08 in 10.0 mi West 3.5 mph - N/A   Clear
8:35 PM 39.2 °F - 37.4 °F 93% 30.08 in 10.0 mi Calm Calm - N/A   Clear
8:55 PM 39.2 °F - 37.4 °F 93% 30.08 in 10.0 mi Calm Calm - N/A   Clear
9:15 PM 37.4 °F - 35.6 °F 93% 30.07 in 10.0 mi Calm Calm - N/A   Clear
9:35 PM 35.6 °F 32.8 °F 35.6 °F 100% 30.07 in 10.0 mi West 3.5 mph - N/A   Clear
9:55 PM 35.6 °F - 35.6 °F 100% 30.07 in 10.0 mi Calm Calm - N/A   Clear
10:15 PM 35.6 °F - 35.6 °F 100% 30.07 in 10.0 mi Calm Calm - N/A   Clear
10:35 PM 33.8 °F 30.8 °F 33.8 °F 100% 30.08 in 10.0 mi West 3.5 mph - N/A   Clear
10:55 PM 35.6 °F 31.7 °F 33.8 °F 93% 30.08 in 10.0 mi West 4.6 mph - N/A   Clear
11:15 PM 35.6 °F 32.8 °F 33.8 °F 93% 30.08 in 10.0 mi West 3.5 mph - N/A   Clear
11:35 PM 35.6 °F - 33.8 °F 93% 30.08 in 10.0 mi Calm Calm - N/A   Clear
11:55 PM 33.8 °F - 32.0 °F 93% 30.07 in 10.0 mi Calm Calm - N/A   Clear